This is the latest recevied weather packets stored in our database for station/object KO6HRZ. If no packets are shown the sender has not sent any weather packets the latest 10 day(s).
| Time | Temp. | Humidity | Pressure | Rain* | Wind** | Luminosity | Snow |
|---|---|---|---|---|---|---|---|
| 1777298407 | 7.78° C | 95% | 1016.7 hPa | 0 mm | - | 32 W/m² | - |
| 1777297802 | 7.78° C | 95% | 1016.5 hPa | 0 mm | - | 25 W/m² | - |
| 1777297197 | 7.78° C | 95% | 1016.5 hPa | 0 mm | - | 17 W/m² | - |
| 1777296597 | 7.78° C | 95% | 1016.2 hPa | 0 mm | - | 9 W/m² | - |
| 1777295993 | 7.78° C | 95% | 1016.1 hPa | 0 mm | - | 5 W/m² | - |
| 1777295388 | 7.78° C | 95% | 1016.1 hPa | 0 mm | - | 2 W/m² | - |
| 1777294788 | 7.78° C | 95% | 1016 hPa | 0 mm | - | 0 W/m² | - |
| 1777294186 | 7.78° C | 94% | 1015.8 hPa | 0 mm | - | 0 W/m² | - |
| 1777293584 | 7.78° C | 94% | 1016.1 hPa | 0 mm | - | 0 W/m² | - |
| 1777292980 | 7.78° C | 93% | 1016 hPa | 0 mm | - | 0 W/m² | - |
| 1777292377 | 7.78° C | 93% | 1016 hPa | 0 mm | - | 0 W/m² | - |
| 1777291776 | 8.33° C | 93% | 1016 hPa | 0 mm | - | 0 W/m² | - |
| 1777291175 | 8.33° C | 93% | 1015.9 hPa | 0 mm | - | 0 W/m² | - |
| 1777290573 | 8.89° C | 92% | 1015.9 hPa | 0 mm | - | 0 W/m² | - |
| 1777289972 | 8.89° C | 92% | 1016.1 hPa | 0 mm | - | 0 W/m² | - |
| 1777289370 | 8.89° C | 92% | 1015.9 hPa | 0 mm | - | 0 W/m² | - |
| 1777288769 | 8.89° C | 92% | 1016.2 hPa | 0 mm | - | 0 W/m² | - |
| 1777288168 | 8.89° C | 92% | 1016 hPa | 0 mm | - | 0 W/m² | - |
| 1777287567 | 8.89° C | 92% | 1015.8 hPa | 0 mm | - | 0 W/m² | - |
| 1777286965 | 8.89° C | 92% | 1015.9 hPa | 0 mm | - | 0 W/m² | - |
| 1777286366 | 8.89° C | 91% | 1015.8 hPa | 0 mm | - | 0 W/m² | - |
| 1777285766 | 8.89° C | 91% | 1016 hPa | 0 mm | - | 0 W/m² | - |
| 1777285166 | 8.89° C | 90% | 1015.7 hPa | 0 mm | - | 0 W/m² | - |
| 1777284561 | 9.44° C | 90% | 1015.7 hPa | 0 mm | - | 0 W/m² | - |
| 1777283960 | 9.44° C | 90% | 1015.8 hPa | 0 mm | - | 0 W/m² | - |
* Rain latest hour (hover to see other rain measurements)
** Current wind speed in m/s (hover to see current wind gust speed)